TIME,DELAY(SENSOR),PRES,OXYGEN,RAWTEMP,T(OPTODE),TCPHASE,FLUOR,BETA(BETA700),BETA(BETA412),BETA(BETA440),CDOM,C(CSC),ED(ED412.20),ED(ED444.00),ED(ED489.60),ED(ED554.30),LU(LU412.10),LU(LU443.90),LU(LU489.70),LU(LU554.70),COMP,TILTX,TILTY,CHECK
1358736569,5808,888.0200195312500000,33.8329505920410160,559.7944946289062000,4.4922637939453125,56.4652709960937500,55,98,99,78,83,15543,0,0,0,0,2147121115,2147775798,2147568091,2147568182,3367,2,13,35605
1358740165,5809,959.2399902343750000,40.6325607299804700,568.0150756835938000,4.2372260093688965,55.5011100769043000,55,99,101,78,81,15544,0,0,0,0,2147126729,2147773129,2147571446,2147569536,629,2,13,21131
1358743765,5808,960.5100097656250000,41.2568092346191400,568.2504272460938000,4.2299180030822750,55.4123497009277340,54,99,99,78,82,15541,0,0,0,0,2147123355,2147773229,2147577517,2147567094,630,2,13,40346
1358747365,5808,995.9799804687500000,43.3397216796875000,571.0045776367188000,4.1443390846252440,55.1350593566894500,56,98,100,78,83,15541,0,0,0,0,2147123419,2147772790,2147576320,2147566646,3381,2,13,486
1358750965,5809,1000.9099731445312000,43.7647590637207000,571.1870727539062000,4.1386661529541020,55.0830802917480500,55,99,100,79,82,15542,0,0,0,0,2147121462,2147774381,2147572352,2147567936,170,2,13,39100
1358754565,5808,1004.0200195312500000,43.9519309997558600,572.3045043945312000,4.1039237976074220,55.0626602172851560,55,100,100,77,82,15543,0,0,0,0,2147121947,2147779931,2147571977,2147569563,390,2,13,7534
1358758165,5810,1006.7600097656250000,43.6976509094238300,572.5994873046875000,4.0947489738464355,55.0993499755859400,54,97,100,78,82,15540,0,0,0,0,2147123437,2147776493,2147576137,2147568914,114,3,13,14610
1358761765,5809,1008.5499877929688000,43.5735092163085940,572.4509887695312000,4.0993690490722660,55.1159706115722660,55,98,100,77,82,15540,0,0,0,0,2147122953,2147776621,2147568777,2147567003,161,2,13,45241
1358765365,5810,1007.4699707031250000,43.9328689575195300,572.9802856445312000,4.0829091072082520,55.0742187500000000,55,101,100,78,82,15538,0,0,0,0,2147122843,2147773622,2147576219,2147566180,421,2,13,36137
1358768965,5811,1001.5000000000000000,44.6867904663085940,573.9072265625000000,4.0540790557861330,54.9790000915527340,55,99,101,79,82,15540,0,0,0,0,2147127835,2147770459,2147569152,2147564736,238,2,13,47012
1358772565,5807,1005.5100097656250000,44.7434082031250000,574.0313720703125000,4.0502147674560550,54.9725608825683600,54,99,100,78,82,15540,0,0,0,0,2147125440,2147776283,2147573449,2147569353,159,2,13,38096
1358776165,5810,1007.3499755859375000,44.6524009704589840,573.7985839843750000,4.0574569702148440,54.9841384887695300,55,98,98,78,81,15533,0,0,0,0,2147122441,2147768969,2147573796,2147567643,378,3,13,30074
1358779765,5810,1012.8599853515625000,44.4844207763671900,573.0632934570312000,4.0803279876708980,54.9995689392089840,54,97,101,78,82,15534,0,0,0,0,2147122486,2147774080,2147575213,2147568045,3570,2,13,47598
1358783365,5812,1010.2500000000000000,44.1844902038574200,573.3541870117188000,4.0712780952453610,55.0446891784668000,55,97,100,77,82,15530,0,0,0,0,2147123346,2147770669,2147571666,2147569078,220,2,13,55798
1358786965,5810,1016.1500244140625000,43.4966583251953100,572.3397827148438000,4.1028251647949220,55.1317100524902340,54,98,101,79,83,15529,0,0,0,0,2147122587,2147779648,2147573979,2147566793,3458,2,13,11380
1358790565,5810,1018.4299926757812000,43.3150901794433600,572.0153198242188000,4.1129188537597660,55.1511306762695300,54,99,100,78,83,15520,0,0,0,0,2147124525,2147776265,2147573961,2147569773,3505,2,13,38083
1358794165,5812,1009.5599975585938000,43.5792503356933600,572.7061767578125000,4.0914340019226070,55.1224517822265600,54,99,100,77,83,15529,0,0,0,0,2147121097,2147774253,2147571730,2147568493,3474,2,13,16059
1358797765,5810,1011.3900146484375000,44.2835197448730500,573.7573242187500000,4.0587410926818850,55.0307197570800800,54,98,99,78,82,15489,0,0,0,0,2147123309,2147773952,2147579977,2147568192,59,2,13,4419
1358801365,5809,1011.0700073242188000,44.2453002929687500,573.8380737304688000,4.0562272071838380,55.0415191650390600,55,98,100,78,81,15490,0,0,0,0,2147123072,2147778157,2147575744,2147567350,243,2,13,35791
1358804965,5809,1008.8699951171875000,44.0276412963867200,573.8925170898438000,4.0545368194580080,55.0693588256835940,55,99,102,78,83,15490,0,0,0,0,2147122194,2147774089,2147573129,2147569453,3560,2,13,44591
1358808565,5812,1010.3400268554688000,44.4459495544433600,574.6791992187500000,4.0300598144531250,55.0207786560058600,56,99,100,78,82,15487,0,0,0,0,2147124013,2147773833,2147570395,2147569344,193,3,13,22575
1358812165,5809,1005.3599853515625000,44.1320381164550800,574.5645141601562000,4.0336279869079590,55.0686492919921900,54,99,100,78,81,15487,0,0,0,0,2147121545,2147775049,2147578258,2147569846,3393,2,13,29088
1358815765,5810,1006.6500244140625000,44.4452781677246100,574.9417114257812000,4.0218911170959470,55.0282707214355500,56,97,100,78,81,15486,0,0,0,0,2147124992,2147782646,2147571949,2147566189,485,3,13,118
1358819365,5809,1010.0599975585938000,45.0477905273437500,575.0833129882812000,4.0174870491027830,54.9378318786621100,55,100,99,78,82,15486,0,0,0,0,2147122395,2147770752,2147576082,2147568795,3256,2,13,32077
1358822965,5807,1013.0999755859375000,44.8920783996582000,574.6566772460938000,4.0307598114013670,54.9583702087402340,54,97,100,78,81,15483,0,0,0,0,2147120941,2147775670,2147573888,2147570294,113,2,13,50171
1358826565,5809,1014.0200195312500000,44.3642501831054700,574.6621093750000000,4.0305919647216800,55.0350112915039060,55,97,101,78,82,15485,0,0,0,0,2147120768,2147771730,2147569316,2147566198,129,2,13,53754
1358830165,5808,1014.4000244140625000,43.7378005981445300,573.5579833984375000,4.0649409294128420,55.1049690246582000,54,99,101,79,83,15484,0,0,0,0,2147122550,2147771428,2147567442,2147569252,3364,2,13,19907
1358833765,5811,1015.6599731445312000,43.8628616333007800,573.1472778320312000,4.0777130126953125,55.0845489501953100,55,98,100,78,82,15484,0,0,0,0,2147123730,2147776118,2147568996,2147571062,135,2,13,6031
1358837365,5813,1014.0900268554688000,43.8001899719238300,573.6151123046875000,4.0631642341613770,55.0992202758789060,55,99,99,78,82,15483,0,0,0,0,2147121216,2147777892,2147571026,2147568137,9,2,13,39245
1358840965,5808,1013.9099731445312000,43.9135093688964840,573.2645263671875000,4.0740699768066410,55.0860900878906250,54,100,101,78,81,15483,0,0,0,0,2147121261,2147773046,2147569874,2147570825,3388,2,13,47797
1358844565,5811,1013.9699707031250000,43.3929710388183600,572.7836914062500000,4.0890240669250490,55.1465797424316400,56,99,100,78,81,15484,0,0,0,0,2147121197,2147777746,2147572672,2147568566,3325,2,13,61895
1358848165,5810,1020.0700073242188000,43.6117897033691400,572.7241210937500000,4.0908780097961430,55.1186103820800800,55,99,100,78,82,15480,0,0,0,0,2147121426,2147775716,2147574226,2147567113,3485,2,13,56563
1358851765,5810,1024.0799560546875000,43.0321617126464840,572.5510864257812000,4.0962538719177250,55.1957893371582000,54,99,100,78,82,15477,0,0,0,0,2147122907,2147777078,2147571739,2147574080,3553,2,13,12627
1358855365,5807,1021.5300292968750000,42.7575111389160160,572.3449707031250000,4.1026649475097660,55.2297897338867200,56,98,102,78,81,15477,0,0,0,0,2147122432,2147778459,2147572361,2147570212,273,2,13,15091
1358858965,5810,1023.5599975585938000,43.4973182678222660,572.6071166992188000,4.0945172309875490,55.1297912597656250,54,99,100,78,82,15472,0,0,0,0,2147123730,2147773796,2147568201,2147566125,3,2,13,43164
1358862565,5810,1024.1999511718750000,42.8595886230468750,572.3004150390625000,4.1040530204772950,55.2213401794433600,55,98,101,77,81,15475,0,0,0,0,2147121901,2147771812,2147568347,2147568411,282,2,13,21990
1358866165,5812,1021.6300048828125000,43.1146507263183600,572.4182739257812000,4.1003880500793460,55.1867218017578100,55,102,100,78,82,15472,0,0,0,0,2147121197,2147775442,2147574189,2147564854,2903,2,13,62354
1358869765,5812,1017.0499877929688000,43.2317695617675800,572.3654174804688000,4.1020298004150390,55.1651496887207000,56,100,100,78,82,15475,0,0,0,0,2147120192,2147779081,2147573312,2147568036,29,3,13,37925
1358873365,5808,1016.4899902343750000,43.5231399536132800,573.1679077148438000,4.0770740509033200,55.1359596252441400,55,98,100,77,82,15479,0,0,0,0,2147123291,2147772333,2147570304,2147568749,289,2,13,60632
1358876965,5808,1015.8099975585938000,43.7467002868652340,573.2409057617188000,4.0748038291931150,55.1012306213378900,55,99,101,78,82,15476,0,0,0,0,2147125046,2147776475,2147567286,2147568749,525,2,13,55116
1358880565,5810,1018.2299804687500000,43.6831398010253900,574.1864013671875000,4.0453910827636720,55.1228599548339840,54,99,100,77,81,15478,0,0,0,0,2147121088,2147770660,2147571446,2147569490,138,2,13,51967
1358882156,5812,1018.1199951171875000,44.3819503784179700,574.2553100585938000,4.0432472229003910,55.0225410461425800,54,99,102,77,82,15476,0,0,0,0,2147124928,2147772187,2147570669,2147570843,3334,2,13,43015
